QPF
0.00 0.00 0.00 0.00 0.00 0.00 0.00 0.00 0.00 0.00 0.00 0.00 0.00 0.00 0.00 0.00 0.00 0.00 0.00 0.00 0.00 0.00 0.00 0.00 0.00 0.00 0.00 0.00 0.00 0.00 0.00 0.01 0.03 0.02 0.02 0.02 0.01 0.02 0.02 0.01 0.01 0.01 0.01
0.00 0.00 0.00 0.00 0.00 0.00 0.00 0.00 0.00 0.00 0.00 0.00 0.00 0.00 0.00 0.00 0.00 0.00 0.00 0.00 0.00 0.00 0.00 0.00 0.00 0.00 0.00 0.00 0.00 0.00 0.00 0.00 0.00 0.01 0.01 0.01 0.02 0.01 0.02 0.02 0.01 0.01 0.02
0.00 0.00 0.00 0.00 0.00 0.00 0.00 0.00 0.00 0.00 0.00 0.00 0.00 0.00 0.00 0.00 0.00 0.00 0.00 0.00 0.00 0.00 0.00 0.00 0.00 0.00 0.00 0.00 0.00 0.00 0.00 0.00 0.00 0.00 0.00 0.00 0.00 0.00 0.00 0.01 0.01 0.00 0.00
0.00 0.00 0.00 0.00 0.00 0.00 0.00 0.00 0.00 0.00 0.00 0.00 0.00 0.00 0.00 0.00 0.00 0.00 0.00 0.00 0.00 0.00 0.00 0.00 0.00 0.00 0.00 0.00 0.00 0.00 0.00 0.00 0.00 0.00 0.00 0.00 0.00 0.00 0.00 0.00 0.00 0.01 0.00
0.00 0.00 0.00 0.00 0.00 0.00 0.00 0.00 0.00 0.00 0.00 0.00 0.00 0.00 0.00 0.00 0.00 0.00 0.00 0.00 0.00 0.00 0.00 0.00 0.00 0.00 0.00 0.00 0.00 0.00 0.00 0.00 0.00 0.00 0.00 0.00 0.00 0.00 0.00 0.01 0.00 0.01 0.00
0.00 0.00 0.00 0.00 0.00 0.00 0.00 0.00 0.00 0.00 0.00 0.00 0.00 0.00 0.00 0.00 0.00 0.00 0.00 0.00 0.00 0.00 0.00 0.00 0.00 0.00 0.00 0.00 0.00 0.00 0.00 0.00 0.00 0.00 0.00 0.00 0.00 0.00 0.00 0.00 0.00 0.00 0.00
0.00 0.00 0.00 0.00 0.00 0.00 0.00 0.00 0.00 0.00 0.00 0.00 0.00 0.00 0.00 0.00 0.00 0.00 0.00 0.00 0.00 0.00 0.00 0.00 0.00 0.00 0.00 0.00 0.00 0.00 0.00 0.00 0.00 0.00 0.00 0.00 0.00 0.00 0.00 0.00 0.00 0.00 0.00
0.00 0.00 0.00 0.00 0.00 0.00 0.00 0.00 0.00 0.00 0.00 0.00 0.00 0.00 0.00 0.00 0.00 0.00 0.00 0.00 0.00 0.00 0.00 0.00 0.00 0.00 0.00 0.00 0.00 0.00 0.00 0.00 0.00 0.00 0.00 0.00 0.00 0.00 0.00 0.00 0.00 0.00 0.00
0.00 0.00 0.00 0.00 0.00 0.00 0.00 0.00 0.00 0.00 0.00 0.00 0.00 0.00 0.00 0.00 0.00 0.00 0.00 0.00 0.00 0.00 0.00 0.00 0.00 0.00 0.00 0.00 0.00 0.00 0.00 0.00 0.00 0.00 0.00 0.00 0.00 0.00 0.00 0.00 0.00 0.00 0.00
0.00 0.00 0.00 0.00 0.00 0.00 0.00 0.00 0.00 0.00 0.00 0.00 0.00 0.00 0.00 0.00 0.00 0.00 0.00 0.00 0.00 0.00 0.00 0.00 0.00 0.00 0.00 0.00 0.00 0.00 0.00 0.00 0.00 0.00 0.00 0.00 0.00 0.00 0.00 0.00 0.00 0.00 0.00
0.00 0.00 0.00 0.00 0.00 0.00 0.00 0.00 0.00 0.00 0.00 0.00 0.00 0.00 0.00 0.00 0.00 0.00 0.00 0.00 0.00 0.00 0.00 0.00 0.00 0.00 0.00 0.00 0.00 0.00 0.00 0.00 0.00 0.00 0.00 0.00 0.00 0.00 0.00 0.00 0.00 0.00 0.00
0.00 0.00 0.00 0.00 0.00 0.00 0.00 0.00 0.00 0.00 0.00 0.00 0.00 0.00 0.00 0.00 0.00 0.00 0.00 0.00 0.00 0.00 0.00 0.00 0.00 0.00 0.00 0.00 0.00 0.00 0.00 0.00 0.00 0.00 0.00 0.00 0.00 0.00 0.00 0.00 0.00 0.00 0.00
0.00 0.00 0.00 0.00 0.00 0.00 0.00 0.00 0.00 0.00 0.00 0.00 0.00 0.00 0.00 0.00 0.00 0.00 0.00 0.00 0.00 0.00 0.00 0.00 0.00 0.00 0.00 0.00 0.00 0.00 0.00 0.00 0.00 0.00 0.00 0.00 0.00 0.00 0.00 0.00 0.00 0.00 0.00
0.00 0.00 0.00 0.00 0.00 0.00 0.00 0.00 0.00 0.00 0.00 0.00 0.00 0.00 0.00 0.00 0.00 0.00 0.00 0.00 0.00 0.00 0.00 0.00 0.00 0.00 0.00 0.00 0.00 0.00 0.00 0.00 0.00 0.00 0.00 0.00 0.00 0.00 0.00 0.00 0.00 0.00 0.00
0.00 0.00 0.00 0.00 0.00 0.00 0.00 0.00 0.00 0.00 0.00 0.00 0.00 0.00 0.00 0.00 0.00 0.00 0.00 0.00 0.00 0.00 0.00 0.00 0.00 0.00 0.00 0.00 0.00 0.00 0.00 0.00 0.00 0.00 0.00 0.00 0.00 0.00 0.00 0.00 0.00 0.00 0.00
0.00 0.00 0.00 0.00 0.00 0.00 0.00 0.00 0.00 0.00 0.00 0.00 0.00 0.00 0.00 0.00 0.00 0.00 0.00 0.00 0.00 0.00 0.00 0.00 0.00 0.00 0.00 0.00 0.00 0.00 0.00 0.00 0.00 0.00 0.00 0.00 0.00 0.00 0.00 0.00 0.00 0.00 0.00
0.00 0.00 0.00 0.00 0.00 0.00 0.00 0.00 0.00 0.00 0.00 0.00 0.00 0.00 0.00 0.00 0.00 0.00 0.01 0.00 0.00 0.00 0.00 0.00 0.00 0.00 0.00 0.00 0.00 0.00 0.00 0.00 0.00 0.00 0.00 0.00 0.00 0.00 0.00 0.00 0.00 0.00 0.00
0.00 0.00 0.00 0.00 0.00 0.00 0.00 0.00 0.00 0.00 0.00 0.00 0.00 0.00 0.00 0.00 0.00 0.00 0.01 0.00 0.00 0.00 0.00 0.00 0.00 0.00 0.00 0.00 0.00 0.00 0.00 0.00 0.00 0.00 0.00 0.00 0.00 0.00 0.00 0.00 0.00 0.00 0.00
0.00 0.00 0.00 0.00 0.00 0.00 0.00 0.00 0.00 0.00 0.00 0.00 0.00 0.00 0.00 0.00 0.00 0.00 0.02 0.01 0.01 0.00 0.00 0.00 0.00 0.00 0.00 0.00 0.00 0.00 0.00 0.00 0.00 0.00 0.00 0.00 0.00 0.00 0.00 0.00 0.00 0.00 0.00
0.00 0.00 0.00 0.00 0.00 0.00 0.00 0.00 0.00 0.00 0.00 0.00 0.00 0.00 0.00 0.00 0.01 0.01 0.02 0.01 0.01 0.00 0.00 0.00 0.00 0.00 0.00 0.00 0.00 0.00 0.00 0.00 0.00 0.00 0.00 0.00 0.00 0.00 0.00 0.00 0.00 0.00 0.00
0.00 0.00 0.00 0.00 0.00 0.00 0.00 0.00 0.00 0.00 0.00 0.00 0.00 0.00 0.00 0.00 0.01 0.02 0.01 0.01 0.01 0.00 0.00 0.00 0.00 0.00 0.00 0.00 0.00 0.00 0.00 0.00 0.00 0.00 0.00 0.00 0.00 0.00 0.00 0.00 0.00 0.00 0.00
0.00 0.00 0.00 0.00 0.00 0.00 0.00 0.00 0.00 0.00 0.00 0.00 0.00 0.00 0.00 0.00 0.01 0.02 0.01 0.01 0.01 0.00 0.00 0.00 0.00 0.00 0.00 0.00 0.00 0.00 0.00 0.00 0.00 0.00 0.00 0.00 0.00 0.00 0.00 0.00 0.00 0.00 0.00
0.00 0.00 0.00 0.00 0.00 0.00 0.00 0.00 0.00 0.00 0.00 0.00 0.00 0.00 0.00 0.01 0.02 0.01 0.01 0.01 0.01 0.00 0.00 0.00 0.00 0.00 0.00 0.00 0.00 0.00 0.00 0.00 0.00 0.00 0.00 0.00 0.00 0.00 0.00 0.00 0.00 0.00 0.00
0.00 0.00 0.00 0.00 0.00 0.00 0.00 0.00 0.00 0.00 0.00 0.00 0.01 0.01 0.01 0.01 0.01 0.01 0.01 0.00 0.00 0.00 0.00 0.00 0.00 0.00 0.00 0.00 0.00 0.00 0.00 0.00 0.00 0.00 0.00 0.00 0.00 0.00 0.00 0.00 0.00 0.00 0.00
0.00 0.00 0.00 0.00 0.00 0.00 0.00 0.00 0.00 0.00 0.01 0.01 0.01 0.01 0.01 0.01 0.01 0.01 0.00 0.00 0.00 0.00 0.00 0.00 0.00 0.00 0.00 0.00 0.00 0.00 0.00 0.00 0.00 0.00 0.00 0.00 0.00 0.00 0.00 0.00 0.00 0.00 0.00
0.00 0.00 0.00 0.00 0.00 0.00 0.00 0.00 0.01 0.01 0.01 0.01 0.01 0.01 0.00 0.00 0.00 0.00 0.00 0.00 0.00 0.00 0.00 0.00 0.00 0.00 0.00 0.00 0.00 0.00 0.00 0.00 0.00 0.00 0.00 0.00 0.00 0.00 0.00 0.00 0.00 0.00 0.00
MSLP
1023.16 1023.65 1024.17 1024.69 1024.95 1024.93 1025.07 1025.39 1025.86 1026.12 1026.23 1026.21 1026.21 1026.14 1026.18 1026.24 1026.04 1026.03 1026.09 1025.82 1025.45 1025.44 1024.87 1024.59 1024.13 1023.85 1023.36 1023.13 1022.83 1022.42 1021.74 1021.30 1020.24 1020.03 1020.27 1019.90 1019.51 1019.25 1018.65 1018.09 1017.88 1017.69 1017.02
1023.57 1023.95 1024.53 1025.31 1025.25 1025.39 1025.84 1026.28 1026.64 1026.68 1026.68 1026.67 1026.62 1026.77 1027.13 1027.20 1027.48 1027.06 1026.96 1027.20 1026.94 1026.45 1026.23 1025.50 1025.16 1024.55 1024.12 1023.88 1023.25 1022.97 1022.42 1021.98 1021.54 1020.96 1020.95 1020.58 1020.25 1019.93 1019.22 1018.70 1018.32 1017.66 1017.37
1023.67 1024.43 1024.73 1025.46 1026.03 1026.28 1026.75 1027.10 1027.43 1027.39 1027.66 1027.76 1027.97 1027.92 1028.08 1028.14 1028.15 1028.32 1028.18 1027.86 1027.71 1027.43 1027.10 1026.68 1026.35 1025.87 1025.34 1024.91 1024.54 1023.92 1023.16 1022.38 1022.11 1021.73 1021.43 1021.33 1020.89 1020.51 1019.44 1018.86 1018.56 1018.43 1018.15
1023.35 1024.14 1025.25 1025.44 1025.68 1026.28 1026.73 1026.84 1027.33 1027.41 1027.94 1028.24 1028.43 1028.58 1028.54 1028.62 1028.65 1028.68 1028.60 1028.22 1028.00 1027.90 1027.70 1027.50 1027.29 1027.00 1026.61 1025.88 1025.28 1024.88 1024.29 1023.15 1022.64 1022.17 1021.98 1021.79 1021.66 1021.24 1020.61 1019.74 1019.00 1018.83 1018.71
1022.74 1023.41 1024.50 1025.09 1025.32 1025.62 1026.09 1026.45 1026.57 1026.81 1027.57 1028.42 1028.55 1028.56 1028.58 1028.71 1028.58 1027.96 1028.08 1028.21 1028.01 1027.99 1027.94 1027.80 1027.83 1027.68 1027.62 1027.24 1026.30 1025.91 1025.25 1024.30 1023.69 1023.08 1022.85 1022.66 1022.53 1021.87 1021.32 1020.80 1019.89 1019.29 1019.43
1022.28 1023.12 1023.65 1024.55 1024.94 1025.23 1025.61 1025.99 1026.29 1026.55 1026.83 1027.07 1027.54 1028.05 1028.37 1028.41 1029.15 1028.77 1027.68 1027.84 1028.06 1027.89 1027.73 1027.49 1027.32 1027.61 1027.24 1027.62 1027.35 1027.13 1026.78 1026.03 1025.15 1024.43 1024.00 1023.76 1023.68 1023.29 1022.34 1021.42 1020.51 1019.88 1019.55
1022.11 1022.60 1023.35 1024.07 1024.42 1024.97 1025.42 1025.82 1026.11 1026.38 1026.79 1027.10 1027.42 1027.60 1027.93 1028.56 1029.27 1029.07 1028.40 1027.61 1027.67 1027.80 1027.77 1027.56 1027.59 1027.77 1027.40 1026.88 1026.98 1026.87 1026.95 1027.00 1026.57 1025.59 1025.21 1025.17 1024.80 1024.46 1023.25 1021.88 1021.17 1020.57 1020.77
1021.59 1022.40 1023.03 1023.56 1024.06 1024.71 1025.19 1025.54 1025.99 1026.42 1026.75 1027.09 1027.45 1027.65 1028.00 1028.85 1029.42 1029.27 1028.66 1027.81 1027.91 1028.08 1028.11 1028.04 1028.07 1028.30 1028.75 1027.65 1027.03 1026.94 1026.98 1027.15 1027.38 1026.83 1026.59 1026.43 1026.09 1025.51 1023.92 1022.19 1021.09 1020.43 1020.34
1021.25 1021.91 1022.57 1023.18 1023.76 1024.42 1024.85 1025.34 1025.85 1026.31 1026.80 1027.19 1027.59 1027.72 1027.95 1028.76 1029.48 1029.35 1028.44 1028.00 1028.23 1028.54 1028.82 1029.19 1028.73 1028.90 1029.55 1028.88 1027.59 1027.47 1027.50 1027.88 1027.80 1027.99 1027.77 1027.45 1026.96 1026.44 1025.55 1023.31 1022.31 1021.34 1021.10
1020.73 1021.49 1022.28 1023.02 1023.63 1024.18 1024.77 1025.33 1025.87 1026.31 1026.84 1027.52 1027.96 1028.22 1028.62 1028.89 1029.55 1029.49 1028.68 1028.43 1028.56 1028.76 1029.02 1029.20 1030.09 1029.84 1029.95 1029.59 1028.50 1028.33 1028.38 1028.55 1028.43 1027.96 1027.58 1027.23 1026.93 1026.66 1026.36 1025.76 1024.85 1023.67 1023.14
1020.49 1021.40 1022.20 1022.97 1023.62 1024.40 1025.02 1025.53 1026.10 1026.56 1027.16 1027.94 1028.57 1028.90 1029.21 1029.27 1029.49 1029.69 1029.63 1029.13 1029.21 1029.11 1029.28 1029.55 1030.07 1030.54 1030.35 1030.28 1029.95 1029.78 1029.90 1029.44 1028.48 1028.05 1027.64 1027.39 1027.09 1026.75 1026.69 1026.64 1026.54 1025.91 1025.37
1020.27 1021.16 1022.01 1022.80 1023.64 1024.48 1025.08 1025.71 1026.29 1026.95 1027.84 1028.25 1028.57 1028.80 1029.18 1029.60 1029.72 1029.82 1030.14 1030.14 1030.10 1029.64 1029.80 1030.08 1030.56 1031.11 1031.01 1030.98 1030.59 1030.69 1030.23 1029.22 1028.61 1028.26 1027.91 1027.65 1027.56 1027.40 1027.11 1026.86 1026.84 1026.70 1026.60
1019.88 1020.72 1021.66 1022.62 1023.52 1024.28 1025.06 1025.56 1026.03 1026.67 1027.09 1027.56 1027.93 1028.16 1028.49 1028.96 1029.41 1029.99 1030.34 1030.57 1030.56 1030.11 1030.30 1031.24 1031.43 1031.47 1031.27 1030.85 1031.24 1030.98 1030.13 1029.64 1029.17 1028.77 1028.52 1028.29 1028.22 1028.02 1027.40 1027.00 1026.42 1026.17 1025.79
1019.47 1020.38 1021.32 1022.19 1023.06 1023.93 1024.63 1025.22 1025.59 1026.04 1026.39 1026.78 1027.17 1027.57 1028.02 1028.50 1028.93 1029.43 1030.01 1030.43 1030.94 1030.63 1031.11 1031.21 1031.42 1031.53 1031.47 1031.14 1030.60 1030.57 1030.43 1030.38 1030.09 1029.55 1029.27 1029.00 1028.61 1028.11 1027.58 1027.27 1026.71 1026.20 1025.49
1019.23 1020.11 1021.01 1021.80 1022.74 1023.27 1024.01 1024.62 1025.19 1025.86 1026.07 1026.38 1026.83 1027.34 1027.84 1028.18 1028.65 1029.09 1029.45 1029.73 1030.02 1030.64 1030.86 1030.64 1030.45 1030.46 1030.35 1030.38 1030.38 1030.62 1030.56 1030.51 1030.32 1030.15 1029.82 1029.48 1029.08 1028.65 1028.16 1027.73 1027.26 1026.65 1025.86
1019.03 1019.91 1020.71 1021.44 1022.29 1022.77 1023.50 1024.56 1025.73 1026.12 1026.59 1027.04 1027.11 1027.39 1027.94 1028.17 1028.93 1029.46 1029.81 1030.21 1030.60 1031.00 1030.69 1030.41 1030.35 1030.48 1030.41 1030.38 1030.43 1030.52 1030.59 1030.81 1030.92 1030.58 1030.32 1030.08 1029.81 1029.33 1028.92 1028.16 1027.69 1027.16 1026.51
1018.83 1019.71 1020.52 1021.25 1021.91 1022.50 1023.25 1024.10 1024.95 1026.56 1027.01 1027.23 1027.55 1027.80 1028.06 1028.49 1028.95 1029.11 1029.46 1029.99 1030.51 1030.84 1030.25 1030.31 1030.42 1030.50 1030.44 1030.46 1030.64 1030.76 1030.84 1031.26 1031.57 1031.06 1030.85 1030.71 1030.62 1030.08 1029.33 1028.65 1028.22 1027.73 1027.21
1018.86 1019.87 1020.48 1021.17 1021.84 1022.49 1023.14 1023.73 1024.40 1025.31 1026.11 1026.72 1027.44 1027.71 1028.10 1028.41 1028.76 1028.90 1029.12 1029.81 1030.35 1030.49 1030.07 1030.14 1030.37 1030.54 1030.61 1030.75 1030.96 1031.19 1031.35 1031.46 1031.45 1031.54 1031.30 1031.37 1031.21 1030.70 1029.89 1029.36 1028.92 1028.69 1028.14
1019.42 1020.20 1020.93 1021.55 1022.11 1022.57 1023.14 1023.69 1024.26 1024.83 1025.28 1025.81 1026.64 1027.55 1027.72 1028.19 1028.44 1028.60 1028.87 1028.84 1028.94 1029.33 1029.79 1030.08 1030.47 1030.65 1030.81 1031.06 1031.45 1031.76 1031.99 1031.92 1032.25 1032.06 1031.69 1031.74 1031.60 1031.22 1030.51 1030.16 1029.67 1029.51 1028.99
1019.34 1020.02 1020.68 1021.22 1021.81 1022.38 1022.87 1023.38 1023.92 1024.36 1024.80 1025.19 1025.66 1026.02 1026.78 1027.44 1027.61 1027.82 1028.11 1028.51 1028.75 1029.10 1029.60 1030.02 1030.46 1030.83 1031.08 1031.33 1031.56 1031.86 1031.81 1031.71 1031.81 1031.88 1031.98 1031.96 1031.86 1031.66 1030.97 1030.59 1030.12 1029.66 1028.91
1019.06 1019.99 1020.57 1021.03 1021.48 1021.99 1022.49 1023.00 1023.46 1023.89 1024.22 1024.57 1024.94 1025.56 1026.11 1026.42 1026.70 1026.96 1027.61 1028.23 1028.63 1029.11 1029.76 1030.17 1030.57 1031.00 1031.34 1031.55 1031.75 1031.70 1031.93 1032.05 1032.14 1032.33 1032.25 1032.19 1032.25 1031.89 1031.37 1030.93 1030.49 1029.95 1029.36
1018.94 1019.61 1020.30 1020.67 1021.11 1021.67 1022.18 1022.52 1022.94 1023.32 1023.71 1024.12 1024.63 1025.52 1026.21 1026.37 1026.32 1026.62 1027.43 1028.25 1028.91 1029.49 1030.06 1030.46 1030.64 1030.96 1031.38 1031.64 1031.84 1031.91 1032.04 1032.27 1032.34 1032.42 1032.49 1032.61 1032.35 1031.88 1031.50 1031.16 1030.72 1030.24 1029.71
1018.82 1019.39 1019.96 1020.45 1020.92 1021.58 1022.11 1022.26 1022.69 1023.11 1023.50 1023.94 1024.30 1025.01 1025.81 1025.97 1026.39 1027.06 1027.87 1028.87 1029.56 1030.05 1030.55 1030.88 1031.10 1031.45 1031.85 1032.39 1032.53 1032.43 1032.31 1032.19 1032.55 1032.99 1033.12 1032.83 1032.49 1032.06 1031.86 1031.30 1030.85 1030.47 1029.95
1018.83 1019.43 1019.78 1020.36 1020.98 1021.39 1021.79 1022.24 1022.66 1023.06 1023.36 1023.91 1024.47 1025.01 1025.57 1026.15 1026.83 1027.61 1028.52 1029.22 1029.91 1030.56 1031.16 1031.58 1031.60 1032.02 1032.19 1032.67 1032.49 1032.59 1032.62 1032.83 1033.10 1033.15 1033.57 1033.39 1032.80 1032.26 1031.94 1031.50 1031.06 1030.64 1030.40
1018.96 1019.42 1019.89 1020.43 1020.93 1021.32 1021.85 1022.27 1022.77 1023.23 1023.71 1024.17 1024.66 1025.28 1025.93 1026.59 1027.39 1028.16 1029.02 1029.77 1030.27 1030.66 1031.40 1031.81 1032.04 1032.41 1032.92 1033.24 1033.31 1033.41 1033.61 1033.88 1033.88 1034.05 1033.75 1033.12 1032.76 1032.63 1032.22 1031.72 1031.32 1030.89 1030.38
1019.02 1019.52 1020.04 1020.49 1020.94 1021.43 1021.91 1022.42 1022.98 1023.50 1023.99 1024.57 1025.13 1025.72 1026.36 1026.99 1027.69 1028.45 1029.28 1029.93 1030.49 1030.92 1031.35 1031.76 1032.08 1032.65 1032.92 1032.82 1032.96 1033.37 1033.89 1034.02 1033.98 1033.98 1033.97 1033.19 1032.58 1032.12 1031.75 1031.47 1031.21 1030.83 1030.27
Thickness
5434 5429 5423 5417 5414 5413 5411 5406 5400 5397 5394 5391 5389 5387 5383 5379 5377 5374 5369 5368 5367 5364 5366 5366 5367 5366 5367 5365 5364 5365 5367 5367 5376 5374 5370 5373 5377 5382 5388 5396 5402 5408 5416
5420 5418 5412 5403 5403 5402 5397 5392 5387 5385 5383 5381 5379 5376 5371 5368 5363 5362 5359 5353 5351 5353 5351 5355 5354 5356 5356 5354 5356 5355 5357 5357 5358 5360 5358 5361 5363 5366 5373 5379 5385 5394 5400
5411 5404 5402 5394 5388 5386 5381 5379 5375 5374 5371 5369 5365 5362 5359 5356 5353 5348 5345 5344 5341 5341 5341 5342 5341 5342 5342 5342 5341 5343 5346 5351 5349 5350 5349 5348 5351 5353 5363 5368 5373 5377 5382
5404 5398 5388 5386 5385 5379 5373 5372 5369 5367 5363 5359 5356 5353 5350 5346 5343 5340 5338 5337 5335 5333 5333 5331 5330 5329 5329 5331 5332 5331 5333 5339 5341 5344 5343 5341 5338 5340 5345 5352 5359 5362 5366
5401 5396 5387 5382 5380 5377 5372 5368 5366 5364 5358 5352 5348 5346 5343 5339 5337 5338 5335 5331 5330 5328 5325 5324 5321 5319 5316 5316 5320 5320 5322 5326 5328 5330 5330 5330 5328 5331 5332 5335 5343 5348 5349
5396 5390 5387 5380 5376 5372 5369 5366 5363 5360 5357 5353 5349 5343 5337 5334 5328 5328 5331 5327 5323 5322 5321 5319 5317 5312 5312 5307 5306 5305 5305 5308 5312 5315 5315 5314 5312 5314 5319 5324 5330 5335 5339
5389 5388 5381 5376 5372 5368 5364 5361 5358 5355 5351 5347 5343 5340 5335 5328 5321 5321 5322 5323 5321 5317 5313 5311 5308 5303 5303 5303 5300 5298 5295 5293 5294 5299 5299 5296 5298 5298 5305 5314 5317 5322 5319
5387 5380 5376 5372 5368 5364 5360 5357 5353 5349 5345 5341 5336 5333 5328 5319 5314 5313 5314 5315 5312 5307 5303 5300 5297 5292 5287 5290 5291 5290 5286 5282 5279 5280 5279 5279 5279 5282 5292 5303 5311 5316 5316
5379 5376 5371 5368 5364 5360 5357 5353 5348 5344 5338 5334 5329 5326 5323 5315 5308 5306 5308 5308 5303 5297 5291 5285 5284 5280 5274 5275 5280 5279 5276 5269 5267 5263 5263 5263 5264 5266 5271 5285 5292 5302 5304
5377 5372 5367 5362 5358 5355 5351 5347 5342 5337 5332 5325 5320 5316 5310 5307 5301 5299 5300 5297 5294 5288 5282 5277 5268 5265 5262 5261 5265 5264 5261 5255 5253 5253 5253 5253 5253 5254 5255 5257 5262 5272 5276
5372 5365 5361 5356 5352 5346 5342 5338 5333 5328 5322 5315 5307 5303 5299 5297 5293 5289 5286 5286 5282 5278 5273 5266 5258 5252 5250 5247 5245 5243 5239 5239 5242 5242 5242 5241 5240 5240 5239 5238 5238 5241 5246
5366 5361 5355 5351 5345 5339 5335 5330 5325 5318 5309 5304 5300 5297 5292 5287 5283 5279 5274 5270 5266 5265 5259 5253 5246 5239 5236 5233 5231 5227 5226 5228 5229 5229 5228 5227 5224 5223 5222 5222 5221 5221 5221
5363 5358 5352 5346 5339 5334 5328 5324 5320 5313 5309 5303 5298 5295 5289 5282 5276 5269 5264 5258 5254 5252 5245 5236 5231 5226 5224 5222 5216 5214 5214 5212 5212 5211 5209 5207 5204 5203 5205 5206 5209 5209 5210
5360 5355 5348 5342 5336 5330 5325 5320 5316 5311 5307 5302 5296 5290 5284 5277 5271 5263 5255 5248 5241 5238 5230 5225 5220 5215 5212 5209 5207 5202 5198 5194 5191 5191 5189 5188 5187 5188 5190 5190 5193 5195 5199
5356 5350 5344 5339 5332 5328 5323 5318 5312 5305 5300 5296 5289 5282 5275 5270 5263 5255 5248 5242 5235 5227 5221 5218 5214 5210 5206 5201 5196 5188 5184 5179 5177 5174 5173 5172 5172 5172 5173 5173 5175 5178 5183
5352 5346 5340 5335 5328 5325 5319 5311 5300 5294 5287 5282 5277 5272 5265 5260 5251 5243 5236 5228 5221 5214 5211 5208 5203 5197 5192 5187 5181 5176 5171 5165 5160 5158 5156 5155 5153 5154 5153 5157 5158 5159 5162
5348 5341 5335 5329 5324 5319 5313 5306 5299 5283 5277 5271 5266 5260 5255 5248 5241 5234 5227 5218 5210 5203 5204 5197 5190 5184 5179 5173 5167 5162 5157 5149 5143 5142 5139 5136 5133 5133 5136 5138 5138 5138 5140
5340 5332 5328 5322 5317 5311 5305 5300 5294 5285 5275 5267 5258 5252 5245 5238 5231 5225 5219 5209 5201 5195 5193 5186 5178 5171 5165 5159 5152 5145 5139 5134 5129 5123 5121 5116 5113 5114 5116 5116 5116 5114 5115
5328 5322 5317 5312 5307 5302 5296 5290 5284 5278 5272 5265 5254 5243 5236 5229 5222 5215 5209 5205 5200 5192 5182 5173 5164 5157 5151 5143 5134 5126 5119 5115 5107 5105 5103 5098 5095 5093 5094 5093 5093 5090 5089
5323 5317 5312 5307 5301 5295 5290 5283 5277 5271 5264 5258 5251 5244 5233 5223 5217 5210 5203 5195 5188 5180 5170 5161 5152 5143 5135 5127 5119 5111 5107 5103 5097 5092 5086 5081 5077 5074 5075 5073 5072 5071 5073
5319 5311 5305 5301 5296 5290 5283 5276 5270 5264 5258 5252 5245 5235 5226 5219 5212 5206 5196 5185 5177 5167 5156 5147 5138 5128 5119 5111 5104 5099 5092 5086 5080 5073 5069 5064 5058 5055 5054 5052 5051 5050 5051
5313 5307 5300 5295 5290 5283 5277 5271 5265 5259 5251 5244 5235 5223 5213 5208 5204 5197 5185 5173 5162 5151 5141 5131 5123 5114 5105 5097 5090 5084 5077 5069 5063 5057 5051 5043 5040 5038 5035 5032 5031 5030 5029
5306 5300 5294 5288 5282 5274 5267 5263 5256 5249 5241 5234 5226 5216 5205 5200 5192 5182 5170 5156 5145 5135 5125 5115 5107 5098 5089 5080 5073 5067 5061 5055 5046 5037 5030 5026 5023 5020 5015 5014 5012 5009 5008
5298 5291 5286 5280 5272 5267 5260 5253 5246 5238 5232 5223 5214 5205 5196 5187 5177 5165 5152 5141 5130 5119 5108 5099 5092 5083 5075 5066 5060 5052 5045 5036 5028 5021 5013 5008 5004 5002 4998 4995 4993 4990 4987
5288 5283 5277 5270 5263 5257 5250 5243 5234 5226 5218 5210 5201 5192 5182 5172 5160 5148 5136 5125 5115 5105 5094 5086 5078 5069 5059 5051 5043 5035 5027 5018 5011 5004 4998 4994 4990 4984 4979 4977 4975 4972 4971
5280 5273 5267 5260 5254 5247 5239 5231 5222 5213 5205 5196 5187 5177 5167 5157 5146 5134 5122 5111 5101 5091 5083 5074 5065 5056 5047 5039 5030 5020 5012 5004 4997 4990 4983 4980 4976 4973 4969 4966 4961 4957 4955